[[{"header":{"parameterUnit":"m.s-1","parameterCategory":1,"la1":30.2992,"la2":30.254,"lo1":-89.0895,"lo2":-89.0443,"dy":0.0025,"dx":0.0025,"nx":19,"ny":19,"refTime":"2026-05-07T09:00:00:Z","depth":0,"parameterNumber":2,"parameterNumberName":"U-component_of_WINDS"},"data":[0,0,0,4.1799,4.1804,4.2013,4.2013,4.2279,4.2281,0,0,0,0,0,0,0,0,0,0,0,4.1736,4.1738,4.1799,4.1804,4.2013,4.2014,4.2279,4.2281,0,0,0,0,0,0,0,0,0,0,0,4.1735,4.1738,4.174,4.1805,4.2012,4.2014,4.2278,4.2121,0,0,0,0,0,0,0,0,0,0,4.1919,4.1859,4.1737,4.174,4.1806,4.2012,4.2014,4.2114,4.2131,4.2184,0,4.223,0,4.226,4.2299,4.23,0,0,0,4.1805,4.1845,4.1902,4.174,4.1808,4.2012,4.1919,4.2123,4.2143,4.2207,4.2234,4.2244,4.2264,4.2301,4.2302,4.2601,4.2602,0,0,4.1794,4.1773,4.1889,4.1915,4.1882,4.1912,4.1925,4.2135,4.2164,4.2235,4.225,4.2269,4.2303,4.2305,4.2599,4.2601,0,0,0,4.176,4.1765,4.1817,4.1904,4.1941,4.1918,4.1933,4.2154,4.2173,4.2253,4.2272,4.2304,4.2307,4.2598,4.26,4.2645,0,0,0,4.1753,4.1746,4.1812,4.1802,4.1937,4.2051,4.1948,4.2158,4.2183,4.227,4.2304,4.231,4.2597,4.2599,4.2641,4.267,0,0,0,4.1723,4.1742,4.1772,4.1801,4.189,4.2048,4.2078,4.2164,4.2194,4.23,4.2311,4.2596,4.2599,4.2637,4.2663,4.274,0,0,0,4.1686,4.1811,4.1772,4.1919,4.1888,4.2074,4.2077,4.2218,4.2314,4.2305,4.2597,4.26,4.2636,4.2659,4.2736,4.28,4.2826,0,0,4.1832,4.1828,4.1916,4.1887,4.2075,4.2044,4.2239,4.2347,4.2376,4.2524,4.2532,4.2642,4.2663,4.274,4.2978,4.2998,0,0,0,4.1955,4.2018,4.2072,4.2162,4.2247,4.2322,4.2402,4.2441,4.2568,4.2448,4.2693,4.2706,4.2751,4.2783,4.28,4.2839,4.2614,4.2614,4.2613,4.2133,4.2163,4.231,4.2364,4.2452,4.2532,4.2605,4.2672,4.2678,4.2735,4.2779,4.292,4.2956,4.2969,4.301,4.2817,4.2817,4.2817,4.2817,4.2349,4.2442,4.2445,4.2588,4.2618,4.274,4.2822,4.2821,4.2938,4.289,4.2932,4.2875,4.299,4.3027,4.2821,4.2821,4.282,4.282,4.2819,4.2467,4.2517,4.2562,4.2694,4.2793,4.2844,4.2955,4.298,4.3004,4.3045,4.3092,4.3092,4.3092,4.3066,4.3067,4.3067,4.3068,4.3068,4.3069,4.2571,4.2621,4.2711,4.2811,4.2871,4.2953,4.3034,4.3094,4.3167,4.3176,4.3176,4.3174,4.2996,4.295,4.3076,4.3075,4.3074,4.3073,4.3073,4.2775,4.2733,4.2872,4.2932,4.305,4.3145,4.3175,4.3294,4.3348,4.3401,4.3391,4.3256,4.3253,4.324,4.3201,4.3385,4.3385,4.3385,4.3385,4.2873,4.2874,4.3021,4.3115,4.321,4.3251,4.3406,4.347,4.353,4.3565,4.3542,4.3494,4.3479,4.3485,4.3467,4.3431,4.3669,4.367,4.367,4.2999,4.301,4.3138,4.3195,4.3289,4.3368,4.3515,4.3622,4.3682,4.3682,4.3592,4.358,4.3502,4.3476,4.3472,4.3442,4.3377,0,0]},{"header":{"parameterUnit":"m.s-1","parameterCategory":1,"la1":30.2992,"la2":30.254,"lo1":-89.0895,"lo2":-89.0443,"dy":0.0025,"dx":0.0025,"nx":19,"ny":19,"refTime":"2026-05-07T09:00:00:Z","depth":0,"parameterNumber":3,"parameterNumberName":"V-component_of_WINDS"},"data":[0,0,0,2.5207,2.5209,2.5313,2.5313,2.5442,2.5443,0,0,0,0,0,0,0,0,0,0,0,2.5175,2.5176,2.5207,2.521,2.5313,2.5314,2.5442,2.5443,0,0,0,0,0,0,0,0,0,0,0,2.5175,2.5176,2.5177,2.521,2.5313,2.5314,2.5442,2.5365,0,0,0,0,0,0,0,0,0,0,2.5265,2.5234,2.5176,2.5177,2.5211,2.5313,2.5314,2.5361,2.537,2.5394,0,2.5416,0,2.5432,2.5452,2.5452,0,0,0,2.5211,2.5227,2.5256,2.5177,2.5212,2.5313,2.5267,2.5366,2.5375,2.5405,2.5418,2.5423,2.5434,2.5453,2.5453,2.5592,2.5593,0,0,2.5205,2.5193,2.525,2.5262,2.5247,2.5263,2.527,2.5372,2.5384,2.5418,2.5426,2.5436,2.5453,2.5454,2.5591,2.5592,0,0,0,2.5188,2.5189,2.5216,2.5257,2.5276,2.5266,2.5274,2.538,2.539,2.5427,2.5437,2.5454,2.5456,2.5591,2.5592,2.561,0,0,0,2.5184,2.5179,2.5213,2.5207,2.5274,2.5329,2.528,2.5383,2.5395,2.5437,2.5454,2.5457,2.559,2.5591,2.5609,2.5621,0,0,0,2.5169,2.5177,2.5192,2.5206,2.525,2.5328,2.5344,2.5385,2.5401,2.5452,2.5457,2.559,2.5591,2.5607,2.5619,2.5654,0,0,0,2.5149,2.5207,2.5192,2.526,2.5249,2.5339,2.5343,2.541,2.5457,2.5455,2.559,2.5592,2.5606,2.5617,2.5653,2.5683,2.5694,0,0,2.5215,2.5214,2.5256,2.5245,2.5335,2.5324,2.5416,2.5469,2.5485,2.5555,2.5559,2.5609,2.5618,2.5654,2.5762,2.5771,0,0,0,2.5273,2.5302,2.5328,2.5372,2.5414,2.5452,2.5492,2.5512,2.5572,2.5519,2.5632,2.5638,2.5659,2.5674,2.5682,2.5701,2.5598,2.5598,2.5598,2.535,2.5367,2.5436,2.5465,2.5507,2.5548,2.5584,2.5617,2.5622,2.5648,2.567,2.5733,2.575,2.5756,2.5776,2.5686,2.5687,2.5687,2.5687,2.5449,2.5493,2.5497,2.5566,2.5583,2.5641,2.5683,2.5684,2.5739,2.5718,2.5738,2.5714,2.5765,2.5783,2.5688,2.5688,2.5688,2.5688,2.5688,2.5501,2.5526,2.5549,2.5613,2.5661,2.5688,2.5742,2.5755,2.5768,2.5787,2.5811,2.5811,2.5812,2.5798,2.5798,2.5798,2.5798,2.5799,2.5799,2.5547,2.5572,2.5616,2.5666,2.5695,2.5736,2.5777,2.5806,2.5842,2.5848,2.5848,2.585,2.5767,2.5746,2.5802,2.5802,2.5801,2.5801,2.5801,2.5641,2.5622,2.569,2.5719,2.5778,2.5825,2.5841,2.5899,2.5925,2.5951,2.5948,2.5885,2.5885,2.5879,2.5862,2.5945,2.5945,2.5945,2.5945,2.5686,2.5687,2.5759,2.5806,2.5853,2.5874,2.5949,2.5982,2.6012,2.6029,2.6018,2.5997,2.599,2.5994,2.5985,2.597,2.6078,2.6078,2.6078,2.5745,2.5751,2.5813,2.5843,2.589,2.593,2.6,2.6053,2.6083,2.6084,2.6042,2.6037,2.6002,2.5989,2.599,2.5976,2.5948,0,0]}]]